Tracking 29065 objects as of 22-Jul-2024
HD Live streaming from Space Station
objects crossing your sky now

COSMOS 1275 DEB *

Track COSMOS 1275 DEB * now!
10-day predictions


NORAD ID: 18565
Int'l Code: 1981-053LY
Perigee: 957.2 km
Apogee: 1,177.9 km
Inclination: 82.5 °
Period: 106.4 minutes
Semi major axis: 7438 km
RCS: 0.0174 m2 (small)
Launch date: June 4, 1981
Source: Commonwealth of Independent States (former USSR) (CIS)
Launch site: PLESETSK MISSILE AND SPACE COMPLEX (PKMTR)

Note: This is SATELLITE DEBRIS
Your satellite tracking list
Your tracking list is empty




NASA's NSSDC Master Catalog

Two Line Element Set (TLE):
1 18565U 85094U   24202.24639656  .00009923  00000-0  13807-1 0  9995
2 18565  82.4741 308.5885 0148378 201.7811 187.2641 13.53221023596350
Source of the keplerian elements: AFSPC